Regional Weather Roundup
Issued by NWS

Home | Current Version | Previous Version | Text Only | Print | Product List | Glossary On
Versions: 1 2 3 4 5 6 7 8 9 10 11 12 13 14 15 16 17 18 19 20 21 22 23 24 25 26 27 28 29 30 31 32 33 34 35 36 37 38 39 40 41 42 43 44 45 46 47 48 49 50
000
ASUS43 KDTX 230910
RWRMI
MICHIGAN HOURLY REGIONAL WEATHER ROUNDUP
NATIONAL WEATHER SERVICE DETROIT/PONTIAC MI
500 AM EDT TUE AUG 23 2016

NOTE: "FAIR" INDICATES FEW OR NO CLOUDS BELOW 12,000 FEET WITH NO
SIGNIFICANT WEATHER AND/OR OBSTRUCTION TO VISIBILITY.

MIZ047>049-052>055-059>063-066>070-074>076-081>083-231000-
SOUTHEAST LOWER MICHIGAN

CITY           SKY/WX    TMP DP  RH WIND       PRES   REMARKS
ADRIAN         CLEAR     55  55 100 CALM      30.26S
ALMA           CLEAR     55  55 100 CALM      30.23R
ANN ARBOR      FOG       49  49 100 CALM      30.25S VSB 1/2
BAD AXE        CLEAR     57  53  88 SW3       30.23R
CARO           CLEAR     54  53  98 CALM      30.23R
DETROIT CITY   CLEAR     61  56  83 CALM      30.25S
DETROIT        PTCLDY    61  55  81 S3        30.26S
FLINT          CLEAR     59  52  77 S3        30.24S
GROSSE ILE     CLEAR     65  55  68 W5        30.24S
HILLSDALE      CLEAR     54  52  94 CALM      30.25S
HOWELL         CLEAR     59  54  82 CALM      30.25S

CITY           SKY/WX    TMP DP  RH WIND       PRES   REMARKS
JACKSON        CLEAR     57  55  93 CALM      30.25R
LAMBERTVILLE   CLEAR     56  55  94 CALM      30.26S
LANSING        CLEAR     59  53  80 CALM      30.24S
LAPEER         FAIR      52  50  93 CALM      30.25S
MASON          CLEAR     56  53  89 CALM      30.25R
MONROE         CLEAR     55  55  99 CALM      30.25S
MT. CLEMENS    CLEAR     62  54  73 SW5       30.23S
PONTIAC        CLEAR     58  53  84 CALM      30.25R
PORT HURON     CLEAR     54  54 100 CALM      30.25S FOG
TRI CITIES     CLEAR     59  57  93 SW5       30.23R
MIDLAND        FAIR      53  53 100 CALM      30.22R
TROY           CLEAR     62  54  74 CALM      30.27S
SAGINAW HB     CLEAR     57  54  88 S5        30.22S
$$
MIZ043>046-050>051-056>058-064>065-071>073-077>080-231000-
SOUTHWEST LOWER MICHIGAN

CITY           SKY/WX    TMP DP  RH WIND       PRES   REMARKS
BATTLE CREEK   CLEAR     57  56  96 CALM      30.24R
BENTON HARBOR  CLEAR     61  55  81 S3        30.21R
BIG RAPIDS     CLEAR     55  54  97 CALM      30.22R
COLDWATER      CLEAR     58  57  95 CALM      30.25R
FREMONT        FAIR      58  56  92 CALM      30.20S
HOLLAND        CLEAR     59  55  87 SE5       30.21R
GRAND RAPIDS   CLEAR     58  54  86 CALM      30.22R
IONIA          FAIR      56  54  94 S3        30.23R
KALAMAZOO      CLEAR     61  56  83 S5        30.23R
LUDINGTON      CLEAR     57  56  97 CALM      30.17S
MARSHALL       CLEAR     59  57  94 CALM      30.24R
MOUNT PLEASANT   N/A     55  54  97 CALM      30.22R FOG
MUSKEGON       CLEAR     61  58  90 E6        30.19S
SOUTH HAVEN    CLEAR     60  57  91 CALM      30.21S
$$
MIZ016>042-231000-
NORTHERN LOWER MICHIGAN

CITY           SKY/WX    TMP DP  RH WIND       PRES   REMARKS
ALPENA         MOCLDY    65  53  65 CALM      30.14S
BEAVER ISLAND  CLOUDY    68  64  87 S12G18    30.07S
BELLAIRE       LGT RAIN  63  60  91 S8        30.12F
CADILLAC       MOCLDY    57  54  91 SW3       30.20S
CHARLEVOIX     CLOUDY    66  63  87 S7        30.10F
FRANKFORT      CLOUDY    66  58  76 SE5       30.15F
GAYLORD        CLOUDY    63  58  83 SW16G25   30.13F
GRAYLING       CLOUDY    60  57  92 CALM      30.19S
HARBOR SPRINGS CLOUDY    67  62  84 SW8       30.10F
HOUGHTON LAKE  CLOUDY    64  56  75 SW9       30.22R
MANISTEE       CLEAR     57  55  93 E3        30.18R
OSCODA         CLOUDY    61  54  76 S9        30.16F
PELLSTON       CLOUDY    67  58  72 VRB3      30.09F
ROGERS CITY    CLOUDY    62  55  78 S3        30.13F
TRAVERSE CITY  CLOUDY    65  61  87 CALM      30.13F
$$
MIZ007>008-015-231000-
EASTERN UPPER MICHIGAN

CITY           SKY/WX    TMP DP  RH WIND       PRES   REMARKS
KINROSS        PTCLDY    64  60  87 SW5       30.08S
MACKINAC ISLAN PTCLDY    68  61  78 SW9       30.09S
NEWBERRY       CLOUDY    66  61  83 SW12      30.06S
S. S. MARIE    CLEAR     60  57  89 CALM      30.07R
MUNISING         N/A     68  61  78 SW12G22   30.02S
$$
MIZ004>006-011>014-085-231000-
CENTRAL UPPER MICHIGAN

CITY           SKY/WX    TMP DP  RH WIND       PRES   REMARKS
MANISTIQUE     CLOUDY    67  64  88 SW9G16    30.06R
ESCANABA       CLOUDY    69  63  81 SW12      30.06S
MENOMINEE      CLOUDY   N/A N/A N/A S8        30.09F
SAWYER-GWINN   CLEAR     61  59  93 SW8       30.06R
$$
MIZ001>003-009>011-084-231000-
WESTERN UPPER MICHIGAN

CITY           SKY/WX    TMP DP  RH WIND       PRES   REMARKS
IRON MOUNTAIN  CLOUDY    62  58  86 S7        30.06S
HOUGHTON       CLOUDY    65  60  84 SW8       29.96S
COPPER HARBOR    N/A     68  61  78 W13G22    29.92S
IRONWOOD       CLEAR     68  60  75 SW15G23   29.98R
$$

ABBREVIATIONS USED IN REMARKS
   TC - TEMPERATURE IN CELSIUS
  WCI - WIND CHILL INDEX
   HX - HEAT INDEX
  VSB - VISIBILITY





USA.gov is the U.S. government's official web portal to all federal, state and local government web resources and services.